Preview of NWS' New Version of Forecast
This preview is not operational and should not be used for support decisions.

Regional Weather Roundup (RWR)

Issued by National Weather Service (NWS)

                            
000
ASUS43 KTOP 181708
RWRKS 

WEATHER ROUNDUP FOR KANSAS
NATIONAL WEATHER SERVICE GOODLAND KS
1100 AM CST MON FEB 18 2019

NOTE:  "FAIR" INDICATES FEW OR NO CLOUDS BELOW 12,000 FEET WITH NO
SIGNIFICANT WEATHER AND/OR OBSTRUCTIONS TO VISIBILITY.

KSZ001>006-013>018-027>032-041>047-181800-
NORTHWEST KANSAS
  
CITY           SKY/WX    TMP DP  RH WIND       PRES   REMARKS
GOODLAND       CLOUDY    10   2  69 NE5       30.32S                  
HAYS           LGT SNOW  14   8  77 N13       30.47R WCI   0          
HILL CITY      CLOUDY    14   5  67 NW8       30.47R                  
RUSSELL        CLOUDY    13   7  77 N10       30.47R WCI   0          
$$

KSZ061>065-074>080-084>089-181800-
SOUTHWEST KANSAS
  
CITY           SKY/WX    TMP DP  RH WIND       PRES   REMARKS
DODGE CITY     LGT SNOW  15   8  73 N9        30.40R VSB 1            
ELKHART        LGT SNOW  17  12  82 N9        30.32S                  
GARDEN CITY    LGT SNOW  12   7  80 N9        30.40R                  
GREAT BEND     FLURRIES  16   8  71 N9        30.47R                  
LIBERAL        FLURRIES  17  12  80 N13       30.39S WCI   4          
PRATT          CLOUDY    20   7  57 N13       30.44F WCI   7          
$$

KSZ066>073-081>083-090>101-181800-
SOUTHEAST KANSAS
  
CITY           SKY/WX    TMP DP  RH WIND       PRES   REMARKS
CHANUTE        MOSUNNY   27  18  69 NW9       30.49R                  
COFFEYVILLE    SUNNY     28  17  63 N12       30.49R WCI  18          
HUTCHINSON     CLOUDY    18   9  68 NE12      30.47R WCI   5          
MEDICINE LODGE   N/A     23   9  55 N13       30.45R WCI  11          
NEWTON         CLOUDY    19  11  70 N12       30.47S WCI   7          
PARSONS        MOSUNNY   26  17  68 N9        30.50R                  
WICHITA INTL   CLOUDY    21  10  62 N14       30.47S WCI   8          
WICHITA JABRA  CLOUDY    22  10  60 N13       30.47S WCI  10          
WICHITA MCCONL CLOUDY    21   9  59 N16       30.46S WCI   7          
WINFIELD       MOSUNNY   24  11  57 N10       30.46S WCI  14          
$$

KSZ007>012-019>026-033>040-048>060-102>105-181800-
NORTHEAST KANSAS
  
CITY           SKY/WX    TMP DP  RH WIND       PRES   REMARKS
CONCORDIA      MIX PCPN  14   6  70 N6        30.50R                  
EMPORIA        SUNNY     21  13  71 NW7       30.49R                  
LAWRENCE       CLOUDY    21  13  71 NW9       30.52R                  
MANHATTAN      CLOUDY    19  11  70 VRB7      30.53R                  
MARYSVILLE     LGT SNOW  16  12  86 NW6       30.51R                  
OLATHE IND     CLOUDY    18  14  84 NW9       30.48R                  
OLATHE EXE     CLOUDY    18  13  80 NW8       30.47R HAZE             
SALINA         CLOUDY    17  10  74 N10       30.53R WCI   5          
TOPEKA BILLARD PTSUNNY   21  12  68 W8        30.52R                  
TOPEKA FORBES  SUNNY     19  11  70 NW9       30.50R                  
$$